CZ-6A DEB

Satellite information

Favourite Embed

Satellite Type and Status

DEBRISIN ORBIT

Key statistics

Satellite CZ-6A DEB at a glance.

Uptime

1032

Days in orbit

Revolutions

≈ 14.6

Per day

Orbit

SSO

Sun Synchronous Orbit

Inclination

98.6

Latest

Satellite identification and parameters

Extended collection of information and parameters for CZ-6A DEB.

Object identification

Identified? True

Debris? True

Object name: CZ-6A DEB

International designator: 2022-151RG

Object number (NORAD): 54919

Object ID (CCSDS): 54919

Country: PEOPLES REPUBLIC OF CHINA (PRC)

Current information (Y/N): Y

RCS size: SMALL

Orbital parameters

Period: 98.43 minutes

Inclination: 98.643 deg

SMA: 7061.728 km

Apoapsis: 743.111 km

Periapsis: 624.076 km

RAAN: 295.6116 deg

Eccentricy: 0.00842814

Argument of periapsis: 87.2083 deg

Mean anomaly: 273.876 deg

Mean motion: 14.62972769 rev/day

Mean motion (dot): 0.00021558 rev/day2

B* drag term: 0.0039969814 1/REarth

Two-line elements (TLE)

Creation date: Sept. 7, 2025, 9:49 a.m.

Reference frame: TEME

Reference center: EARTH

Epoch: Sept. 7, 2025, 2:40 a.m. UTC

TLE line 0: 0 CZ-6A DEB

TLE line 1: 1 54919U 22151RG 25250.11164177 .00021558 00000-0 39970-2 0 9992

TLE line 2: 2 54919 98.6430 295.6116 0084281 87.2083 273.8760 14.62972769145276

Live tracking on map

Real-time ground track for satellite CZ-6A DEB.

In-orbit conjunctions

A list of the most updated potential collisions computed for object CZ-6A DEB.

Target Orbit TCA Probability of collision Miss distance Type
COSMOS 220 LEO 2025-08-05 10:41:55 0.0004684285 113.0 (m) PAYLOAD
THORAD AGENA D DEB LEO 2025-01-08 11:53:35 0.0001104561 70.0 (m) DEBRIS

Associated space launch

Chinese satellite reported for atmospheric/ocean/environmental/spatial parameter research purposes, details TBD.

CZ-6A DEB was lifted into orbit during the mission ‘Long March 6A | Yunhai 3’, on board a Long March 6A space rocket.

The launch took place on Nov. 11, 2022, 10:52 p.m. from Launch Complex 9A.

For more information about the launch, click the button.

Launch to space Long March 6A | Yunhai 3
Long March 6A | Yunhai 3

Agency: N/A

Status: Launch Successful

Launch date: Nov. 11, 2022, 10:52 p.m. UTC

Rocket: Long March 6A

Launch pad: Launch Complex 9A

Location: Taiyuan Satellite Launch Center, People's Republic of China

...

Latest news about this satellite

There are no fresh news available about this satellite. Check back as we update our databases every day.


Newsletter sign-up

Weekly statistics, charts and insights to help you stay on top of the space industry.